Regional Weather Roundup
Issued by NWS Little Rock, AR

Home | Current Version | Previous Version | Text Only | Print | Product List | Glossary On
Versions: 1 2 3 4 5 6 7 8 9 10 11 12 13 14 15 16 17 18 19 20 21 22 23 24 25 26 27 28 29 30 31
000
ASUS44 KLZK 230405
RWRLZK

WEATHER ROUNDUP FOR ARKANSAS
NATIONAL WEATHER SERVICE LITTLE ROCK AR
1000 PM CST WED FEB 22 2017

NOTE: "FAIR" INDICATES FEW OR NO CLOUDS BELOW 12,000 FEET WITH NO
SIGNIFICANT WEATHER AND/OR OBSTRUCTIONS TO VISIBILITY.

ARZ001-003-010-029-230500-
NORTHWEST ARKANSAS

CITY           SKY/WX    TMP DP  RH WIND       PRES   REMARKS
FAYETTEVILLE   PTCLDY    55  53  93 S3        29.75F
FORT SMITH     CLEAR     59  55  87 NE7       29.75R
HARRISON       CLEAR     58  56  93 S10       29.78S
BENTONVILLE    CLEAR     61  52  72 S3        29.76S
ROGERS         CLEAR     60  53  77 SE9       29.76S
SILOAM SPGS    CLEAR     61  52  72 S5        29.74S
HIGHFILL       CLEAR     60  53  77 S9        29.74F
$$

ARZ004-005-016-230500-
NORTH CENTRAL ARKANSAS

CITY           SKY/WX    TMP DP  RH WIND       PRES   REMARKS
BATESVILLE     CLEAR     55  52  88 SW3       29.81F
FLIPPIN        MOCLDY    57  52  82 S7        29.77R
MTN HOME       MOCLDY    56  54  93 CALM      29.78S
$$

ARZ040-041-230500-
WEST CENTRAL ARKANSAS

CITY           SKY/WX    TMP DP  RH WIND       PRES   REMARKS
MENA           MOCLDY    61  61 100 CALM      29.81R
MOUNT IDA      MOCLDY    56  54  93 CALM      29.78S
$$

ARZ009-017-025-026-028-230500-
NORTHEAST ARKANSAS

CITY           SKY/WX    TMP DP  RH WIND       PRES   REMARKS
CORNING        FAIR      57  57 100 SW7       29.80R
JONESBORO      CLEAR     57  55  93 CALM      29.81R
NEWPORT        CLEAR     57  55  93 SW6       29.81
WALNUT RIDGE   CLEAR     57  54  88 SW5       29.80R
BLYTHEVILLE    MOCLDY    60  58  92 SW5       29.80S
$$

ARZ022-023-033-042-044-230500-
CENTRAL ARKANSAS

CITY           SKY/WX    TMP DP  RH WIND       PRES   REMARKS
LITTLE ROCK    PTCLDY    54  54 100 CALM      29.81F
N LITTLE ROCK    N/A     56  54  94 S3        29.82S
JACKSONVILLE   PTCLDY    50  50 100 CALM      29.81S
SEARCY         FOG       52  52 100 CALM      29.83S VSB 1/4
HOT SPRINGS    CLOUDY    55  54  96 E5        29.81F
RUSSELLVILLE   CLEAR     55  54  96 E3        29.79S
CLINTON        MOCLDY    57  55  94 CALM      29.81S FOG
$$

ARZ036-230500-
EAST ARKANSAS

CITY           SKY/WX    TMP DP  RH WIND       PRES   REMARKS
WEST MEMPHIS   PTCLDY    63  58  83 SW6       29.81S
$$

ARZ050-053-066-070-073-230500-
SOUTHWEST ARKANSAS

CITY           SKY/WX    TMP DP  RH WIND       PRES   REMARKS
ARKADELPHIA    FOG       50  50 100 CALM      29.82S VSB 1/2
CAMDEN         CLEAR     52  50  93 CALM      29.82S FOG
TEXARKANA      CLEAR     60  56  86 SE8       29.79F
EL DORADO      PTCLDY    53  52  96 CALM      29.82S FOG
DE QUEEN       PTCLDY    55  55 100 CALM      29.78R
$$

ARZ056-057-069-230500-
SOUTHEAST ARKANSAS

CITY           SKY/WX    TMP DP  RH WIND       PRES   REMARKS
PINE BLUFF     CLEAR     54  53  97 CALM      29.82S FOG
STUTTGART      CLEAR     57  48  72 CALM      29.83F
MONTICELLO     CLEAR     58  55  90 S3        29.83S

$$






USA.gov is the U.S. government's official web portal to all federal, state and local government web resources and services.